QZS-4 (QZSS/PRN 185)

Last updated on Jan. 17, 2020, 4:32 a.m. UTC

1 42965U 17062A   20016.32462170 -.00000323  00000-0  00000+0 0  9994
2 42965  40.8000  13.6102 0751054 268.6269  85.7403  1.00299344  8315
UTC
Height (km)
Latitude
Longitude
Inclination
Orbital Period
UTC large
Height (km)
Speed (km/s)
/
Latitude / Longitude
Inclination (degrees)
Orbital Period (minutes)
Azimuth
Elevation
Range (km)
Doppler Factor
iOS Compass Heading
iOS Angle

Next 30 passes for location: Hong Kong

Rise time Rise Azimuth (degrees) Set time Set Azimuth (degrees) Duration Max altitude (degrees)

No matching passes for this satellites